Regional Weather Roundup
Issued by NWS

Home | Current Version | Previous Version | Graphics & Text | Print | Product List | Glossary On
Versions: 1 2 3 4 5 6 7 8 9 10 11 12 13 14 15 16 17 18 19 20 21 22 23 24 25 26 27 28 29 30 31 32 33 34 35 36 37 38 39 40 41 42 43 44 45 46 47 48 49 50
616
ASUS43 KBIS 012002
RWRND

NORTH DAKOTA REGIONAL WEATHER ROUNDUP
NATIONAL WEATHER SERVICE BISMARCK ND
300 PM CDT SAT OCT 01 2016

NOTE: "FAIR" INDICATES FEW OR NO CLOUDS BELOW 12,000 FEET WITH NO
SIGNIFICANT WEATHER AND/OR OBSTRUCTIONS TO VISIBILITY.


NDZ001>003-009>011-017-012100-
NORTHWEST NORTH DAKOTA

CITY           SKY/WX    TMP DP  RH WIND       PRES   REMARKS
WILLISTON      SUNNY     75  53  46 SE9       29.91F
MINOT          SUNNY     74  51  44 E13       29.95F
MINOT AFB      SUNNY     73  52  48 SE15      29.94F
$$

NDZ018>021-031>035-040>046-012100-
SOUTHWEST NORTH DAKOTA

CITY           SKY/WX    TMP DP  RH WIND       PRES   REMARKS
BISMARCK       SUNNY     76  50  40 S18       29.97F
DICKINSON      SUNNY     76  50  40 SE9       29.92F
GARRISON         N/A     74  52  46 S10       29.95F
HETTINGER ARPT SUNNY     78  52  40 SE8       29.95F
$$

NDZ004>008-012>016-024-026-027-054-012100-
NORTHEAST NORTH DAKOTA

CITY           SKY/WX    TMP DP  RH WIND       PRES   REMARKS
GRAND FORKS    PTSUNNY   71  54  54 SE10      30.08F
GRND FRKS AFB  MOSUNNY   69  55  60 SE10      30.08F
DEVILS LAKE    SUNNY     71  49  45 SE16      30.04F
$$

NDZ022-023-025-028>030-036>039-047>053-012100-
SOUTHEAST NORTH DAKOTA

CITY           SKY/WX    TMP DP  RH WIND       PRES   REMARKS
FARGO          MOSUNNY   73  53  49 SE13      30.07F
JAMESTOWN      SUNNY     71  49  45 SE18      30.03F
$$





USA.gov is the U.S. government's official web portal to all federal, state and local government web resources and services.